• Join FlightAware (Why Join?)
  • Login
  • US Flag GB Flag 
08:04 EST


 

Airport Tracker/Info


-or-


 

Live Flight TrackerFlight Track Log ✈ EJA831 ✈ 29-Apr-2013 ✈ KPSF - KDTS

Flight Track Log - Related Links

Times and Time Zones

All times are in EDT time to prevent confusion due to time zone crossing. See the EJA831 flight status page for this flight to view local times or setup timezone preferences in your user account.

Time Position Orientation Groundspeed Altitude Reporting Facility
EDT Latitude Longitude Course Direction KTS MPH feet Rate Location/Type
14:24 42.4178 -73.3231 220° Southwest 200 230 2,400  Level Boston Center
14:25 42.3483 -73.4008 220° Southwest 275 316 7,100 3,211 Climbing Boston Center
14:26 42.2750 -73.4503 207° Southwest 275 316 10,000 2,700 Climbing Boston Center
14:27 42.2039 -73.4856 200° South 269 310 12,500 2,650 Climbing Boston Center
14:28 42.1283 -73.5347 206° Southwest 287 330 15,300 2,850 Climbing Boston Center
14:29 42.0528 -73.5836 206° Southwest 301 346 18,200 2,650 Climbing Boston Center
14:30 41.9731 -73.6353 206° Southwest 307 353 20,600 2,350 Climbing Boston Center
14:31 41.8892 -73.6922 207° Southwest 325 374 22,900 1,850 Climbing Boston Center
14:32 41.8050 -73.7492 207° Southwest 355 409 24,300 1,950 Climbing Boston Center
14:33 41.7189 -73.8028 205° Southwest 355 409 26,800 2,150 Climbing Boston Center
14:34 41.6286 -73.8619 206° Southwest 355 409 28,600 2,600 Climbing Boston Center
14:35 41.5447 -73.9183 207° Southwest 350 403 32,000 2,731 Climbing Boston Center
14:37 41.4533 -73.9792 207° Southwest 313 360 34,700 1,778 Climbing New York Center
14:38 41.3792 -74.0281 206° Southwest 298 343 36,000 1,230 Climbing New York Center
14:39 41.3267 -74.1139 231° Southwest 286 329 37,200 1,091 Climbing New York Center
14:40 41.2639 -74.1964 225° Southwest 304 350 38,200 1,041 Climbing New York Center
14:41 41.1928 -74.2839 223° Southwest 314 361 39,300 814 Climbing New York Center
14:42 41.1256 -74.3656 222° Southwest 324 373 39,800 610 Climbing New York Center
14:43 41.0583 -74.4556 225° Southwest 335 386 40,500 843 Climbing New York Center
14:44 40.9908 -74.5428 224° Southwest 340 391 41,500 893 Climbing New York Center
14:45 40.9278 -74.6269 225° Southwest 340 391 42,300 595 Climbing New York Center
14:46 40.8625 -74.7083 223° Southwest 340 391 42,700 298 Climbing New York Center
14:47 40.7972 -74.7950 225° Southwest 340 391 42,900 153 Climbing New York Center
14:48 40.7275 -74.8814 223° Southwest 340 391 43,000 51 Climbing New York Center
14:49 40.6597 -74.9703 225° Southwest 346 398 43,000  Level New York Center
14:50 40.5878 -75.0589 223° Southwest 346 398 43,000  Level New York Center
14:51 40.5178 -75.1500 225° Southwest 352 405 43,000  Level New York Center
14:52 40.4456 -75.2464 225° Southwest 357 411 43,000  Level New York Center
14:53 40.3689 -75.3419 224° Southwest 368 423 43,000  Level New York Center
14:54 40.2944 -75.4325 223° Southwest 373 429 43,000  Level New York Center
14:55 40.2197 -75.5281 224° Southwest 373 429 43,000  Level New York Center
14:56 40.1450 -75.6206 223° Southwest 373 429 43,000  Level New York Center
14:57 40.0683 -75.7156 223° Southwest 373 429 43,000  Level New York Center
14:59 39.8881 -75.9403 224° Southwest 372 428 43,000  Level Washington Center
15:00 39.8211 -76.0211 223° Southwest 372 428 43,000  Level Washington Center
15:01 39.7458 -76.1150 224° Southwest 372 428 43,000  Level Washington Center
15:02 39.6703 -76.2061 223° Southwest 372 428 43,000  Level Washington Center
15:03 39.5928 -76.2944 221° Southwest 372 428 43,000  Level Washington Center
15:04 39.5214 -76.3878 225° Southwest 372 428 43,000  Level Washington Center
15:05 39.4436 -76.4783 222° Southwest 372 428 43,000  Level Washington Center
15:06 39.3639 -76.5686 221° Southwest 377 434 43,000  Level Washington Center
15:07 39.2817 -76.6667 223° Southwest 377 434 43,000  Level Washington Center
15:08 39.2036 -76.7567 222° Southwest 371 427 43,000  Level Washington Center
15:09 39.1278 -76.8519 224° Southwest 371 427 43,000  Level Washington Center
15:10 39.0517 -76.9414 222° Southwest 371 427 43,000  Level Washington Center
15:11 38.9778 -77.0308 223° Southwest 371 427 43,000  Level Washington Center
15:12 38.9017 -77.1200 222° Southwest 371 427 43,000  Level Washington Center
15:13 38.8233 -77.2117 222° Southwest 371 427 43,000  Level Washington Center
15:14 38.7492 -77.3006 223° Southwest 371 427 43,000  Level Washington Center
15:15 38.6728 -77.3892 222° Southwest 371 427 43,000  Level Washington Center
15:16 38.5964 -77.4778 222° Southwest 371 427 43,000  Level Washington Center
15:17 38.5197 -77.5686 223° Southwest 371 427 43,000  Level Washington Center
15:18 38.4433 -77.6594 223° Southwest 371 427 43,000  Level Washington Center
15:19 38.3667 -77.7472 222° Southwest 371 427 43,000  Level Washington Center
15:20 38.2900 -77.8378 223° Southwest 371 427 43,000  Level Washington Center
15:21 38.2217 -77.9150 222° Southwest 371 427 43,000  Level Washington Center
15:22 38.1469 -78.0050 223° Southwest 371 427 43,000  Level Washington Center
15:23 38.0681 -78.0947 222° Southwest 371 427 43,000  Level Washington Center
15:24 37.9928 -78.1897 225° Southwest 366 421 43,000  Level Washington Center
15:25 37.9239 -78.2875 228° Southwest 361 415 43,000  Level Washington Center
15:26 37.8572 -78.3850 229° Southwest 371 427 43,000  Level Washington Center
15:27 37.7967 -78.4722 229° Southwest 376 433 43,000  Level Washington Center
15:28 37.7275 -78.5692 228° Southwest 376 433 43,000  Level Washington Center
15:29 37.6606 -78.6664 229° Southwest 376 433 43,000  Level Washington Center
15:30 37.5933 -78.7606 228° Southwest 376 433 43,000  Level Washington Center
15:31 37.5175 -78.8647 227° Southwest 376 433 43,000  Level Washington Center
15:32 37.4500 -78.9639 229° Southwest 371 427 43,000  Level Washington Center
15:33 37.3808 -79.0550 226° Southwest 371 427 43,000  Level Washington Center
15:34 37.3111 -79.1536 228° Southwest 376 433 43,000  Level Washington Center
15:35 37.2436 -79.2497 229° Southwest 376 433 43,000  Level Washington Center
15:36 37.1764 -79.3297 223° Southwest 376 433 43,000  Level Washington Center
15:37 37.1047 -79.4228 226° Southwest 376 433 43,000  Level Washington Center
15:38 37.0306 -79.5178 226° Southwest 381 438 43,000  Level Washington Center
15:39 36.9567 -79.6078 224° Southwest 386 444 43,000  Level Washington Center
15:40 36.8847 -79.7000 226° Southwest 386 444 43,000  Level Washington Center
15:42 36.7544 -79.8544 224° Southwest 386 444 43,000  Level Atlanta Center
15:43 36.6883 -79.9381 225° Southwest 381 438 43,000  Level Atlanta Center
15:44 36.6144 -80.0300 225° Southwest 381 438 43,000  Level Atlanta Center
15:45 36.5422 -80.1214 225° Southwest 381 438 43,000  Level Atlanta Center
15:46 36.4658 -80.2103 223° Southwest 376 433 43,000  Level Atlanta Center
15:47 36.3856 -80.3122 226° Southwest 376 433 43,000  Level Atlanta Center
15:48 36.3131 -80.3981 224° Southwest 371 427 43,000  Level Atlanta Center
15:49 36.2383 -80.4889 224° Southwest 371 427 43,000  Level Atlanta Center
15:50 36.1658 -80.5769 224° Southwest 371 427 43,000  Level Atlanta Center
15:51 36.0956 -80.6700 227° Southwest 366 421 43,000  Level Atlanta Center
15:52 36.0206 -80.7578 223° Southwest 372 428 43,000  Level Atlanta Center
15:53 35.9539 -80.8375 224° Southwest 372 428 43,000  Level Atlanta Center
15:54 35.8811 -80.9275 225° Southwest 372 428 43,000  Level Atlanta Center
15:55 35.8083 -81.0147 224° Southwest 364 419 43,000  Level Atlanta Center
15:56 35.7353 -81.1019 224° Southwest 369 425 43,000  Level Atlanta Center
15:57 35.6436 -81.1969 220° Southwest 375 432 43,000  Level Atlanta Center
15:58 35.5728 -81.2864 226° Southwest 380 437 43,000  Level Atlanta Center
15:59 35.4978 -81.3858 227° Southwest 380 437 43,000  Level Atlanta Center
16:00 35.4244 -81.4722 224° Southwest 385 443 43,000  Level Atlanta Center
16:01 35.3572 -81.5508 224° Southwest 379 436 43,000  Level Atlanta Center
16:02 35.2839 -81.6394 225° Southwest 373 429 43,000  Level Atlanta Center
16:03 35.2083 -81.7306 225° Southwest 367 422 43,000  Level Atlanta Center
16:04 35.1369 -81.8189 225° Southwest 373 429 43,000  Level Atlanta Center
16:05 35.0614 -81.9097 225° Southwest 373 429 43,000  Level Atlanta Center
16:06 34.9878 -82.0006 225° Southwest 373 429 43,000  Level Atlanta Center
16:07 34.9058 -82.0936 223° Southwest 373 429 43,000  Level Atlanta Center
16:08 34.8300 -82.1839 224° Southwest 368 423 43,000  Level Atlanta Center
16:09 34.7561 -82.2742 225° Southwest 373 429 43,000  Level Atlanta Center
16:10 34.6883 -82.3539 224° Southwest 381 438 43,000  Level Atlanta Center
16:11 34.6144 -82.4461 226° Southwest 381 438 43,000  Level Atlanta Center
16:12 34.5364 -82.5358 223° Southwest 381 438 43,000  Level Atlanta Center
16:13 34.4603 -82.6256 224° Southwest 381 438 43,000  Level Atlanta Center
16:14 34.3839 -82.7147 224° Southwest 386 444 43,000  Level Atlanta Center
16:15 34.3056 -82.8067 224° Southwest 392 451 43,000  Level Atlanta Center
16:16 34.2231 -82.9058 225° Southwest 387 445 43,000  Level Atlanta Center
16:17 34.1467 -82.9972 225° Southwest 392 451 43,000  Level Atlanta Center
16:18 34.0661 -83.0883 223° Southwest 392 451 43,000  Level Atlanta Center
16:19 33.9894 -83.1769 224° Southwest 392 451 43,000  Level Atlanta Center
16:20 33.9128 -83.2678 225° Southwest 392 451 43,000  Level Atlanta Center
16:21 33.8361 -83.3561 224° Southwest 392 451 43,000  Level Atlanta Center
16:22 33.7614 -83.4442 224° Southwest 392 451 43,000  Level Atlanta Center
16:23 33.6847 -83.5294 223° Southwest 392 451 43,000  Level Atlanta Center
16:24 33.6161 -83.6097 224° Southwest 392 451 43,000  Level Atlanta Center
16:25 33.5392 -83.7000 224° Southwest 392 451 43,000  Level Atlanta Center
16:26 33.4600 -83.7847 222° Southwest 387 445 43,000  Level Atlanta Center
16:27 33.3850 -83.8722 224° Southwest 387 445 43,000  Level Atlanta Center
16:28 33.3100 -83.9592 224° Southwest 382 440 43,000  Level Atlanta Center
16:29 33.2244 -84.0561 223° Southwest 377 434 43,000  Level Atlanta Center
16:30 33.1492 -84.1431 224° Southwest 382 440 43,000 -600 Level Atlanta Center
16:31 33.0719 -84.2322 224° Southwest 382 440 41,800 -1,500 Descending Atlanta Center
16:32 32.9944 -84.3186 223° Southwest 382 440 40,000 -1,800 Descending Atlanta Center
16:33 32.9211 -84.4000 223° Southwest 375 432 38,200 -1,800 Descending Atlanta Center
16:34 32.8478 -84.4839 224° Southwest 375 432 36,400 -1,100 Descending Atlanta Center
16:35 32.7828 -84.5578 224° Southwest 370 426 36,000 -200 Descending Atlanta Center
16:36 32.7075 -84.6411 223° Southwest 370 426 36,000  Level Atlanta Center
16:37 32.6317 -84.7269 224° Southwest 370 426 36,000  Level Atlanta Center
16:38 32.5583 -84.8078 223° Southwest 370 426 36,000 -250 Level Atlanta Center
16:39 32.4742 -84.8956 221° Southwest 370 426 35,500 -500 Descending Atlanta Center
16:40 32.4006 -84.9761 223° Southwest 370 426 35,000 -450 Descending Atlanta Center
16:41 32.3225 -85.0614 223° Southwest 370 426 34,600 -500 Descending Atlanta Center
16:42 32.2678 -85.1247 224° Southwest 364 419 34,000 -300 Descending Atlanta Center
16:43 32.1792 -85.2217 223° Southwest 364 419 34,000 -450 Level Atlanta Center
16:44 32.1056 -85.3017 223° Southwest 364 419 33,100 -1,200 Descending Atlanta Center
16:45 32.0294 -85.3864 223° Southwest 364 419 31,600 -1,550 Descending Atlanta Center
16:46 31.9533 -85.4683 222° Southwest 374 430 30,000 -1,473 Descending Atlanta Center
16:48 31.7431 -85.6969 223° Southwest 398 458 26,100 -1,446 Descending Jacksonville Center
16:49 31.6658 -85.7825 223° Southwest 393 452 24,600 -1,050 Descending Jacksonville Center
16:50 31.5847 -85.8678 222° Southwest 393 452 24,000 -750 Descending Jacksonville Center
16:51 31.5056 -85.9481 221° Southwest 393 452 23,100 -1,450 Descending Jacksonville Center
16:52 31.4225 -86.0161 215° Southwest 383 441 21,100 -1,950 Descending Jacksonville Center
16:53 31.3414 -86.0864 217° Southwest 372 428 19,200 -1,700 Descending Jacksonville Center
16:54 31.2622 -86.1542 216° Southwest 366 421 17,700 -1,250 Descending Jacksonville Center
16:55 31.1794 -86.2119 211° Southwest 360 414 16,700 -1,050 Descending Jacksonville Center
16:56 31.0850 -86.2303 189° South 348 400 15,600 -1,550 Descending Jacksonville Center
16:57 30.9908 -86.2392 185° South 335 386 13,600 -2,350 Descending Jacksonville Center
16:58 30.9128 -86.2656 196° South 310 357 10,900 -2,550 Descending Jacksonville Center
16:59 30.8453 -86.2919 199° South 285 328 8,500 -2,050 Descending Jacksonville Center
17:00 30.7839 -86.3286 207° Southwest 264 304 6,800 -1,650 Descending Jacksonville Center
17:01 30.7211 -86.3358 186° South 239 275 5,200 -900 Descending Jacksonville Center
17:02 30.6578 -86.3553 195° South 233 268 5,000 -100 Descending Jacksonville Center
17:03 30.5933 -86.3506 176° South 233 268 5,000  Level Jacksonville Center
17:05 30.4901 -86.4126 207° Southwest  Level FlightAware Approximate
17:12 30.4000 -86.4667 198° South  Level FlightAware Approximate
17:13 30.4000 -86.4715 198° South  Level Estimated
17:14 30.4000 -86.4667 198° South  Level FlightAware Approximate
17:15 30.4000 -86.4715 198° South  Level Estimated
17:16 30.4000 -86.4667 198° South  Level FlightAware Approximate
17:17 30.4000 -86.4715 198° South  Level Estimated
17:18 30.4000 -86.4667 198° South  Level FlightAware Approximate